Find Tian Lian 1-01

NORAD ID: 32779 Int'l Des: 2008-019 Owner: CAST Country: CN operational
HEOCIRCULAR

現在のビュー

3D地球を読み込み中...

Tian Lian 1-01について

説明を読み込み中...

次回通過

Passes for default location (London). Set your location on the main map for personalized predictions.

高度履歴

Loading altitude history...

軌道要素

1 32779U 08019A 26149.42798060 -.00000040 00000-0 00000+0 0 9998
2 32779 10.1078 59.4782 0006169 246.4572 341.5877 0.97413503 15175
Epoch: May 29, 2026 • Age: 19 hours

現在のステータス

高度 36611.2 km
速度 3.04 km/s
衛星直下点 5.68°N, 121.29°W
打ち上げ日 Apr 25, 2008
運用期間 18 years
タイプ other

技術仕様

分類 Payload
質量 2475.00 kg
乾燥質量 1060.00 kg
総質量 2475.00 kg
長さ 6.00 m
直径 1.70 m
スパン 18.10 m
形状 Box + 2 Pan + Dish
製造者 CAST
バスタイプ DFH-3
フェーズステータス In Orbit
所有者/国 CAST/CN

Most Searched